Weather History for KGEY - December, 2012

Change the Weather History Date:

Tuesday, December 4, 2012

  Actual Average Record
Temperature  
Mean Temperature 34 °F 20 °F  
Max Temperature 46 °F 32 °F 48 °F (2004)
Min Temperature 21 °F 9 °F -7 °F (2013)
Degree Days  
Heating Degree Days 31 45  
Month to date heating degree days 102 176  
Since 1 July heating degree days 1714 2033  
Cooling Degree Days 0 0  
Month to date cooling degree days 0 0  
Year to date cooling degree days 977 669  
Moisture  
Dew Point 20 °F    
Average Humidity 62    
Maximum Humidity 84    
Minimum Humidity 40    
Precipitation  
Precipitation 0.00 in 0.01 in 0.07 in (2011)
Month to date precipitation 0.00 0.06  
Year to date precipitation 2.22 7.29  
Sea Level Pressure  
Sea Level Pressure 30.20 in    
Wind  
Wind Speed 3 mph (South)    
Max Wind Speed 10 mph    
Max Gust Speed 12 mph    
Visibility 10 miles    
Events      
T = Trace of Precipitation, MM = Missing Value Source: NWS Daily Summary

Daily Weather History Graph

Daily Weather History Graph

Search for Another Location

Airport or City:

Trip Planner

Search our weather history database for the weather conditions in past years. The results will help you decide how hot, cold, wet, or windy it might be!

Date:

Astronomy

Dec. 04, 2012 Rise Set
Actual Time 7:32 AM MST 4:32 PM MST
Civil Twilight 6:59 AM MST 5:05 PM MST
Nautical Twilight 6:23 AM MST 5:42 PM MST
Astronomical Twilight 5:47 AM MST 6:17 PM MST
Moon 10:32 PM MST (12/4) 11:19 AM MST (12/4)
Length of Visible Light 10h 06m
Length of Day
9h 00m
Waning Gibbous, 69% of the Moon is Illuminated
Dec 4
Waning Gibbous
Dec 6
Last Quarter
Dec 13
New
Dec 19
First Quarter
Dec 28
Full

Hourly Weather History & Observations

Time (MST) Temp. Windchill Dew Point Humidity Pressure Visibility Wind Dir Wind Speed Gust Speed Precip Events Conditions
12:53 AM 28.0 °F 20.8 °F 18.0 °F 66% 30.25 in 10.0 mi South 6.9 mph - N/A   Clear
1:53 AM 24.1 °F - 17.1 °F 75% 30.27 in 10.0 mi Calm Calm - N/A   Clear
2:53 AM 23.0 °F 18.4 °F 17.1 °F 78% 30.30 in 10.0 mi South 3.5 mph - N/A   Clear
3:53 AM 23.0 °F 18.4 °F 17.1 °F 78% 30.29 in 10.0 mi East 3.5 mph - N/A   Clear
4:53 AM 21.9 °F 15.7 °F 17.1 °F 82% 30.29 in 10.0 mi SE 4.6 mph - N/A   Clear
5:53 AM 24.1 °F 19.7 °F 17.1 °F 75% 30.27 in 10.0 mi ESE 3.5 mph - N/A   Clear
6:53 AM 24.1 °F - 18.0 °F 77% 30.27 in 10.0 mi Calm Calm - N/A   Clear
7:53 AM 24.1 °F 19.7 °F 19.0 °F 81% 30.28 in 10.0 mi NNW 3.5 mph - N/A   Clear
8:53 AM 25.0 °F - 19.9 °F 81% 30.28 in 10.0 mi Calm Calm - N/A   Partly Cloudy
9:53 AM 27.0 °F 23.0 °F 21.0 °F 78% 30.28 in 10.0 mi West 3.5 mph - N/A   Mostly Cloudy
10:53 AM 28.9 °F - 21.0 °F 72% 30.24 in 10.0 mi Calm Calm - N/A   Overcast
11:53 AM 34.0 °F 31.0 °F 23.0 °F 64% 30.20 in 10.0 mi SW 3.5 mph - N/A   Clear
12:53 PM 39.9 °F - 21.9 °F 49% 30.17 in 10.0 mi Calm Calm - N/A   Clear
1:53 PM 43.0 °F - 21.9 °F 43% 30.14 in 10.0 mi Calm Calm - N/A   Clear
2:53 PM 45.0 °F 43.5 °F 21.9 °F 40% 30.13 in 10.0 mi SW 3.5 mph - N/A   Clear
3:53 PM 44.1 °F 41.5 °F 21.9 °F 42% 30.14 in 10.0 mi WSW 4.6 mph - N/A   Clear
4:53 PM 41.0 °F - 21.0 °F 45% 30.15 in 10.0 mi Calm Calm - N/A   Clear
5:53 PM 35.1 °F 31.0 °F 21.9 °F 59% 30.16 in 10.0 mi SSE 4.6 mph - N/A   Clear
6:53 PM 35.1 °F 32.2 °F 21.9 °F 59% 30.15 in 10.0 mi SE 3.5 mph - N/A   Clear
7:53 PM 33.1 °F 27.7 °F 21.0 °F 61% 30.14 in 10.0 mi ESE 5.8 mph - N/A   Clear
8:53 PM 30.9 °F - 21.9 °F 69% 30.15 in 10.0 mi Calm Calm - N/A   Clear
9:53 PM 30.9 °F - 21.0 °F 67% 30.12 in 10.0 mi Calm Calm - N/A   Clear
10:53 PM 32.0 °F 28.7 °F 21.9 °F 66% 30.09 in 10.0 mi South 3.5 mph - N/A   Clear
11:53 PM 28.0 °F 24.2 °F 21.0 °F 75% 30.06 in 10.0 mi WSW 3.5 mph - N/A   Clear